Location: Ailingen
(47.6833°N, 9.5000°E)
Time: 12:58:10
(UTC+00:00)

Helios 1A Rocket - Pass Details

Date: 18 November 2025
Orbit: 440 x 452 km, 98.3° (Epoch: 06 December)

Event Time Altitude Azimuth Distance (km) Brightness Sun altitude
Exits shadow 17:15:58 26° 119° (ESE) 908 3.5 -15.6°
Drops below altitude 10° 17:18:18 10° 160° (SSE) 1,572 5.1 -16.0°
Sets 17:20:30 0° 172° (S) 2,441 6.2 -16.4°
